sat.trackr.live / text

‹ back to catalog

USA 270

NORAD 41744 · 2016-052A

PAYLOAD ACTIVE UNKNOWN

§ Identity

Operator
Country
US
Launch date
2016-08-19
Launch site
AFETR
Launch vehicle
Mass (kg)
RCS (m²)

Purposes: comms

External: N2YO · Heavens-Above · Gunter

§ Orbital elements

Epoch: 2026-09-12T07:39:47.677248Z

Period
1,436.10 min
Inclination
4.4143°
Eccentricity
0.0008344
Mean motion
1.00271630 rev/d
Perigee alt
35,751.5 km
Apogee alt
35,821.8 km
Semi-major
42,164.8 km
B*
0.0000e+0
RAAN
76.0310°
Arg perigee
114.6601°
Mean anomaly
41.9377°
Rev number
2,900

§ Raw data

USA 2701 41744U 16052A   26255.31930182 -.00000362  00000+0  00000+0 0  99912 41744   4.4143  76.0310 0008344 114.6601  41.9377  1.00271630 29005

JSON: /api/v1/satellites/41744 · /tle

For live sub-satellite position, see the globe view (requires WebGL).

§ Visibility from observer

Set your observer location to see the next 7 days of passes ≥ 10°. The values pass through the URL so the page stays shareable.

No JS? Fill the form by hand. The geolocation button needs JavaScript.